STARLINK-11433, 62008

Orbit data source: Space-Track

STARLINK-11433, 62008 is a payload satellite owned by SpaceX/Seattle (US) in LEO that was launched on Mon, 18 Nov 2024 UTC via an FALCON 9 launch vehicle from the Air Force Western Test Range (AFWTR). Payload-class satellites include a variety of spacecraft equipped with specific instruments for various scientific and technological missions. These include communications satellites like Starlink; space stations such as the ISS; scientific satellites like the Hubble; Earth observation satellites from companies like Planet Labs, Umbra, and HawkEye 360; GPS; miniature CubeSats for education and research; and military/defense satellites.

Loading next visibility...
Identifier
62008, 2024-213A
Orbit
LEO
Country
Flag of USUS
Related business
Manufacturer
SpaceX/Seattle
Mission
Operational Commercial Communications
Bus & Motor
STARLINK V2MD, Unknown motor
Mass
960 kg wet, ~910 kg dry
Launch date (UTC)
2024-11-18 (11 months ago)
Launch vehicle
FALCON 9
Launch site
Air Force Western Test Range (AFWTR)
Object type
Payload
Rocket body
Debris
Shape & HBR
Box + 2 Pan, 18.1 m
Radar Cross Section
36.964 m², Large (>1 m²)

Expand to show TLE details & history
Last TLE update: 7 hours ago

TLE from 7 hours ago
0 STARLINK-11433
1 62008U 24213A   25301.55125047  .00204053  00000-0  16423-2 0  9990
2 62008  53.1566 332.4854 0001344  67.7545 292.3616 15.69794272 54166
Epoch: 2025-10-28T13:13Z
TLE epoch observation values (Epoch: 2025-10-28T13:13:48.040Z)
Latitude
0.00002°
Longitude
96.89813°
Altitude
360.056 km
Speed
7.695 km/s
True Right ascension
22h 09m 56s
True Declination
0° 00' 00"
Sunlit
Object was in full shadow at epoch
Visualization orbit readout
Latitude
Unknown
Longitude
Unknown
Altitude
Unknown
Speed
Unknown
Apparent Right ascension
Unknown
Apparent Declination
Unknown
Sunlit
N/A
Visualization observer readout
Local Sidereal Time
15:47:17
Azimuth
Unknown
Elevation
Unknown
Doppler factor
Unknown
Orbital elements
Apogee altitude
360.652 km
Perigee altitude
358.841 km
Semi-major axis
6,737.884 km
Eccentricity
0.00013
Inclination
53.1566°
RAAN
332.4854°
Arg. of periapsis
67.7545°
True anomaly
292.34736°
Mean anomaly
292.3616°
Eccentric anomaly
292.35448°
Mean motion
3.92426 °/min
Orbital period
91.74 mins
BSTAR
0.0016423
Loading maneuver chart data...
Computing Atmospheric mass density...
Loading historical data...
Loading historical data...
Loading historical data...
Loading historical data...
Loading historical data...
Loading historical data...
Loading historical data...

Documentation

Showing up to 5 results
|